Hourly Data Report for October 25, 2016

All times are specified in Local Standard Time (LST). Add 1 hour to adjust for Daylight Saving Time where and when it is observed.

CORAL HARBOUR A
NUNAVUT

64°11'36.000" N
83°21'34.000" W
62.20 m
2301002
71915
YZS

Download Data

Hourly Data (October 2016)
Hourly Data Report for October 25, 2016
Temp Definition
°C
Dew Point Temp Definition
°C
Rel Hum Definition
%
Wind Dir Definition
10's deg

Wind Spd Definition
km/h
Visibility Definition
km
Stn Press Definition
kPa
Hmdx Definition


Wind Chill Definition


Weather Definition


TIME
00:00 Legend Double Dagger -11.6 -13.4 87 33 19 24.1 102.32   -20 LegendNANA
01:00 Legend Double Dagger -10.8 -12.7 86 32 21 24.1 102.32   -19 Clear
02:00
03:00 Legend Double Dagger -7.3 -9.3 86 31 19 24.1 102.28   -14 LegendNANA
04:00 Legend Double Dagger -7.2 -9.2 86 32 13 24.1 102.30   -13 Mostly Cloudy
05:00 Legend Double Dagger -7.4 -9.5 85 32 16 24.1 102.29   -14 LegendNANA
06:00 Legend Double Dagger -7.9 -9.6 88 32 22 24.1 102.28   -16 LegendNANA
07:00 Legend Double Dagger -8.4 -10.2 87 32 21 24.1 102.27   -16 Mostly Cloudy
08:00 Legend Double Dagger -10.1 -11.7 88 31 12 24.1 102.27   -16 LegendNANA
09:00 Legend Double Dagger -8.7 -10.5 87 30 19 24.1 102.23   -16 LegendNANA
10:00 Legend Double Dagger -9.3 -11.2 86 27 7 24.1 102.24   -13 Cloudy
11:00 Legend Double Dagger -8.2 -10.3 85 24 4 24.1 102.22   -10 LegendNANA
12:00 Legend Double Dagger -7.0 -9.3 84 30 13 24.1 102.18   -13 LegendNANA
13:00 Legend Double Dagger -6.1 -8.2 85 30 13 24.1 102.18   -11 Cloudy
14:00 Legend Double Dagger -5.8 -7.5 88 27 10 24.1 102.16   -10 LegendNANA
15:00 Legend Double Dagger -5.7 -6.8 92 24 10 24.1 102.13   -10 Snow
16:00 Legend Double Dagger -5.5 -6.6 92 25 11 24.1 102.09   -10 Snow
17:00 Legend Double Dagger -5.6 -6.6 93 36 2 24.1 102.04   -7 Snow
18:00 Legend Double Dagger -5.5 -6.6 92 27 7 24.1 101.99   -9 Snow
19:00 Legend Double Dagger -4.9 -5.6 95 23 8 9.7 101.93   -8 Snow
20:00 Legend Double Dagger -4.9 -5.6 95 24 16 24.1 101.84   -11 Snow
21:00 Legend Double Dagger -4.9 -5.6 95 25 19 24.1 101.79   -11 Snow
22:00 Legend Double Dagger -4.6 -5.3 95 25 18 19.3 101.73   -11 Snow
23:00 Legend Double Dagger -4.7 -5.4 95 25 20 24.1 101.67   -11 Snow

Notes on Data Quality.

Legend

  • E = Estimated
  • M = Missing
  • NA = Not Available
  • ‡ = Partner data that is not subject to review by the National Climate Archives
Date modified: